EZY567K EGGP-EGAC

Flight info

Callsign EZY567K
Flight time 0h 29m
Altitude 22000
Route WAL M146 ERDUV Z198 MASOP M148 MAGEE
Aircraft A320/M-SDE3FGHIRWY/LB1

Departure

Time 2026-05-04 17:26
Airport Liverpool John Lennon Airport (EGGP)

Arrival

Time 2026-05-04 17:55
Airport George Best Belfast City Airport (EGAC)
Time Latitude Longitude Altitude Speed Heading
2026-05-04 17:08 53.33665 -2.85513 86 ft 0 kts 356°
2026-05-04 17:15 53.33647 -2.85512 90 ft 4 kts 356°
2026-05-04 17:16 53.33614 -2.85538 91 ft 4 kts 84°
2026-05-04 17:16 53.33607 -2.85670 88 ft 4 kts 86°
2026-05-04 17:17 53.33605 -2.85715 89 ft 4 kts 86°
2026-05-04 17:17 53.33603 -2.85750 88 ft 0 kts 86°
2026-05-04 17:20 53.33605 -2.85715 89 ft 6 kts 86°
2026-05-04 17:20 53.33596 -2.85521 89 ft 8 kts 137°
2026-05-04 17:20 53.33546 -2.85506 88 ft 7 kts 174°
2026-05-04 17:21 53.33510 -2.85395 87 ft 7 kts 85°
2026-05-04 17:21 53.33525 -2.85091 88 ft 20 kts 85°
2026-05-04 17:22 53.33538 -2.84822 84 ft 27 kts 85°
2026-05-04 17:22 53.33553 -2.84468 78 ft 33 kts 86°
2026-05-04 17:23 53.33592 -2.83379 89 ft 12 kts 110°
2026-05-04 17:23 53.33538 -2.83302 89 ft 6 kts 164°
2026-05-04 17:23 53.33532 -2.83300 88 ft 0 kts 168°
2026-05-04 17:24 53.33463 -2.83296 82 ft 10 kts 191°
2026-05-04 17:25 53.33437 -2.83380 86 ft 9 kts 265°
2026-05-04 17:25 53.33401 -2.84181 77 ft 92 kts 265°
2026-05-04 17:26 53.33258 -2.87323 698 ft 147 kts 266°
2026-05-04 17:26 53.33194 -2.92924 2111 ft 190 kts 290°
2026-05-04 17:27 53.34491 -2.97424 2930 ft 239 kts 296°
2026-05-04 17:27 53.36034 -3.02631 4598 ft 258 kts 296°
2026-05-04 17:28 53.37625 -3.08081 6440 ft 265 kts 296°
2026-05-04 17:29 53.40626 -3.15944 9034 ft 277 kts 313°
2026-05-04 17:29 53.44899 -3.23185 10679 ft 320 kts 313°
2026-05-04 17:30 53.49273 -3.30611 11067 ft 340 kts 313°
2026-05-04 17:31 53.53190 -3.37325 12599 ft 349 kts 313°
2026-05-04 17:31 53.57778 -3.45304 14386 ft 362 kts 309°
2026-05-04 17:32 53.60759 -3.52238 15662 ft 369 kts 304°
2026-05-04 17:33 53.65275 -3.62977 17526 ft 381 kts 305°
2026-05-04 17:33 53.66816 -3.66657 18121 ft 385 kts 305°
2026-05-04 17:34 53.71512 -3.77894 19838 ft 394 kts 306°
2026-05-04 17:34 53.73093 -3.81695 20382 ft 397 kts 306°
2026-05-04 17:35 53.77898 -3.93263 21914 ft 408 kts 306°
2026-05-04 17:35 53.81194 -4.01214 22078 ft 419 kts 306°
2026-05-04 17:35 53.82854 -4.05241 22082 ft 421 kts 306°
2026-05-04 17:36 53.84527 -4.09313 22072 ft 421 kts 306°
2026-05-04 17:36 53.86351 -4.13165 22076 ft 420 kts 315°
2026-05-04 17:36 53.88546 -4.16438 22073 ft 419 kts 325°
2026-05-04 17:36 53.91028 -4.18998 22073 ft 418 kts 335°
2026-05-04 17:37 53.93712 -4.20879 22070 ft 417 kts 340°
2026-05-04 17:37 53.96409 -4.22646 22081 ft 415 kts 339°
2026-05-04 17:37 53.99089 -4.24419 22079 ft 413 kts 339°
2026-05-04 17:37 54.01764 -4.26201 22076 ft 413 kts 339°
2026-05-04 17:38 54.04448 -4.27993 22072 ft 413 kts 339°
2026-05-04 17:38 54.07122 -4.29781 22073 ft 413 kts 339°
2026-05-04 17:38 54.09796 -4.31564 22081 ft 413 kts 339°
2026-05-04 17:38 54.12455 -4.33470 22073 ft 414 kts 333°
2026-05-04 17:39 54.17046 -4.39363 22068 ft 415 kts 313°
2026-05-04 17:39 54.18793 -4.43188 22076 ft 406 kts 306°
2026-05-04 17:39 54.20401 -4.47123 22081 ft 402 kts 306°
2026-05-04 17:40 54.22003 -4.51033 22080 ft 400 kts 306°
2026-05-04 17:40 54.23595 -4.54915 22083 ft 400 kts 306°
2026-05-04 17:40 54.25196 -4.58819 22073 ft 400 kts 306°
2026-05-04 17:40 54.26789 -4.62711 22069 ft 400 kts 306°
2026-05-04 17:41 54.28383 -4.66614 22073 ft 400 kts 306°
2026-05-04 17:41 54.29969 -4.70515 21874 ft 398 kts 306°
2026-05-04 17:41 54.31550 -4.74409 21217 ft 398 kts 305°
2026-05-04 17:41 54.33122 -4.78292 20660 ft 395 kts 306°
2026-05-04 17:42 54.34673 -4.82138 20171 ft 390 kts 305°
2026-05-04 17:42 54.36186 -4.85895 19665 ft 387 kts 305°
2026-05-04 17:42 54.37711 -4.89679 19144 ft 384 kts 305°
2026-05-04 17:42 54.39222 -4.93431 18401 ft 381 kts 305°
2026-05-04 17:43 54.40717 -4.97146 17577 ft 377 kts 305°
2026-05-04 17:43 54.42201 -5.00816 16762 ft 371 kts 305°
2026-05-04 17:43 54.43675 -5.04428 15977 ft 366 kts 305°
2026-05-04 17:43 54.45131 -5.07980 15193 ft 361 kts 305°
2026-05-04 17:44 54.46565 -5.11498 14434 ft 357 kts 302°
2026-05-04 17:44 54.47541 -5.15338 13678 ft 351 kts 286°
2026-05-04 17:44 54.48160 -5.19393 12860 ft 349 kts 284°
2026-05-04 17:44 54.48748 -5.23416 12055 ft 345 kts 284°
2026-05-04 17:45 54.49329 -5.27384 11270 ft 340 kts 284°
2026-05-04 17:45 54.49896 -5.31309 10504 ft 335 kts 282°
2026-05-04 17:45 54.49972 -5.35223 9770 ft 324 kts 261°
2026-05-04 17:45 54.49560 -5.38980 9295 ft 317 kts 259°
2026-05-04 17:46 54.49112 -5.42674 8821 ft 314 kts 259°
2026-05-04 17:46 54.48662 -5.46332 8355 ft 312 kts 259°
2026-05-04 17:46 54.48212 -5.49963 7901 ft 309 kts 259°
2026-05-04 17:46 54.47808 -5.53221 7487 ft 305 kts 259°
2026-05-04 17:47 54.47426 -5.56594 7055 ft 302 kts 264°
2026-05-04 17:47 54.47300 -5.60174 6615 ft 298 kts 269°
2026-05-04 17:47 54.47231 -5.63711 6164 ft 294 kts 269°
2026-05-04 17:47 54.47167 -5.67185 5818 ft 286 kts 269°
2026-05-04 17:48 54.47102 -5.70561 5481 ft 279 kts 269°
2026-05-04 17:48 54.47034 -5.73859 5147 ft 273 kts 269°
2026-05-04 17:48 54.46988 -5.75998 4927 ft 269 kts 269°
2026-05-04 17:48 54.46892 -5.80213 4471 ft 261 kts 269°
2026-05-04 17:49 54.46817 -5.83299 4130 ft 255 kts 269°
2026-05-04 17:49 54.46741 -5.86313 3793 ft 250 kts 269°
2026-05-04 17:49 54.46656 -5.89268 3458 ft 245 kts 269°
2026-05-04 17:49 54.46573 -5.92165 3124 ft 241 kts 269°
2026-05-04 17:50 54.46488 -5.95013 2847 ft 234 kts 269°
2026-05-04 17:50 54.46406 -5.97717 2804 ft 218 kts 269°
2026-05-04 17:50 54.46321 -6.00233 2804 ft 211 kts 269°
2026-05-04 17:50 54.46400 -6.02733 2806 ft 209 kts 292°
2026-05-04 17:51 54.47324 -6.04559 2815 ft 208 kts 335°
2026-05-04 17:51 54.48741 -6.04730 2810 ft 211 kts 19°
2026-05-04 17:51 54.49835 -6.03143 2782 ft 208 kts 60°
2026-05-04 17:51 54.50444 -6.00917 2600 ft 202 kts 53°
2026-05-04 17:52 54.51482 -5.99453 2391 ft 193 kts 26°
2026-05-04 17:52 54.52615 -5.98223 2123 ft 190 kts 32°
2026-05-04 17:52 54.53694 -5.96935 1894 ft 183 kts 32°
2026-05-04 17:52 54.54701 -5.95732 1633 ft 168 kts 31°
2026-05-04 17:53 54.55599 -5.94661 1406 ft 151 kts 31°
2026-05-04 17:53 54.56434 -5.93663 1193 ft 141 kts 31°
2026-05-04 17:53 54.57220 -5.92727 979 ft 135 kts 32°
2026-05-04 17:53 54.57984 -5.91855 759 ft 130 kts 33°
2026-05-04 17:54 54.58732 -5.90984 597 ft 131 kts 37°
2026-05-04 17:54 54.59463 -5.90075 456 ft 130 kts 36°
2026-05-04 17:54 54.60202 -5.89168 307 ft 129 kts 36°
2026-05-04 17:54 54.60951 -5.88281 101 ft 128 kts 36°
2026-05-04 17:55 54.61653 -5.87440 19 ft 115 kts 35°
2026-05-04 17:55 54.62103 -5.86888 16 ft 51 kts 34°
2026-05-04 17:55 54.62342 -5.86601 21 ft 23 kts 30°
2026-05-04 17:55 54.62458 -5.86536 23 ft 17 kts 19°
2026-05-04 17:56 54.62443 -5.86475 20 ft 7 kts 228°
2026-05-04 17:56 54.62416 -5.86524 22 ft 4 kts 224°
2026-05-04 17:56 54.62389 -5.86559 22 ft 11 kts 215°
2026-05-04 17:56 54.62275 -5.86698 20 ft 27 kts 215°
2026-05-04 17:57 54.62095 -5.86913 17 ft 36 kts 215°
2026-05-04 17:57 54.61887 -5.87158 19 ft 28 kts 209°
2026-05-04 17:57 54.61780 -5.87042 22 ft 10 kts 127°
2026-05-04 17:57 54.61727 -5.87001 21 ft 8 kts 189°
2026-05-04 17:58 54.61682 -5.87039 21 ft 7 kts 216°
2026-05-04 17:58 54.61647 -5.87085 21 ft 6 kts 217°
2026-05-04 17:58 54.61607 -5.87135 21 ft 9 kts 216°
2026-05-04 17:58 54.61544 -5.87210 21 ft 11 kts 214°
2026-05-04 17:59 54.61493 -5.87270 21 ft 8 kts 213°
2026-05-04 17:59 54.61450 -5.87259 21 ft 6 kts 134°
2026-05-04 17:59 54.61434 -5.87222 21 ft 1 kts 125°
2026-05-04 18:00 54.61433 -5.87219 21 ft 0 kts 125°